WA1PB Weather Reports


Display with metric or nautical units.
time (UTC)temp
F
wind
direction
speed
MPH
gust
MPH
rain 1hr
in
rain 24hr
in
rain mn
in
humidity
%
barometer
mb
20260506210623 48 1.0 2.0 0.05 0.65 0.65 97
20260506205237 48 0.0 0.0 0.04 0.65 0.64 97
20260506194641 0 0 3.0 3.0 0.03 0.63 0.59
20260506192352 50 2.0 2.0 0.01 0.61 0.57 94
20260506190525 51 17 2.0 3.0 0.02 0.61 0.57 94
20260506185525 51 12 3.0 4.0 0.06 0.61 0.57 94
20260506184526 51 3 2.0 4.0 0.05 0.60 0.56 95
20260506183525 52 324 3.0 5.0 0.15 0.60 0.56 95
20260506182526 52 3.0 3.0 0.15 0.60 0.56 96
20260506181603 52 338 3.0 4.0 0.15 0.60 0.56 95
20260506180218 53 3.0 3.0 0.10 0.55 0.51 96
20260506162525 56 0.0 0.0 0.07 0.43 0.39 96
20260506161546 56 0.0 0.0 0.06 0.41 0.37 96
20260506160603 56 0.0 0.0 0.05 0.39 0.35 96
20260506155141 56 0.0 0.0 0.07 0.39 0.35 95
20260506154026 55 0.0 0.0 0.07 0.38 0.34 95
20260506153140 55 0.0 0.0 0.06 0.36 0.32 95
20260506152122 55 0.0 2.0 0.06 0.36 0.32 95
20260506151104 55 0.0 0.0 0.06 0.34 0.30 95
20260506150025 55 0.0 0.0 0.06 0.33 0.29 94
20260506145026 55 0.0 0.0 0.06 0.32 0.28 94
20260506144025 55 0.0 0.0 0.06 0.31 0.27 95
20260506143025 55 0.0 0.0 0.05 0.30 0.26 95
20260506142026 55 0.0 0.0 0.06 0.30 0.26 95
20260506141025 55 0.0 0.0 0.04 0.29 0.24 95
20260506140046 55 0.0 0.0 0.05 0.28 0.23 97
20260506135025 54 0.0 0.0 0.05 0.27 0.22 97
20260506134025 54 0.0 0.0 0.05 0.26 0.21 97
20260506133046 54 0.0 0.0 0.05 0.26 0.21 97
20260506132025 54 0.0 0.0 0.04 0.25 0.20 98
20260506131026 54 0.0 0.0 0.04 0.25 0.20 99
20260506130025 54 0.0 0.0 0.02 0.23 0.18 99
20260506125026 54 0.0 1.0 0.02 0.22 0.17 99
20260506124025 54 0.0 0.0 0.01 0.21 0.16 99
20260506123025 54 0.0 0.0 0.01 0.21 0.16 99
20260506122026 54 158 0.0 2.0 0.01 0.21 0.16 99
20260506121025 53 158 1.0 3.0 0.01 0.21 0.16 99
20260506120025 53 0.0 0.0 0.01 0.21 0.16 99
20260506115026 53 0.0 0.0 0.00 0.20 0.15 99
20260506114025 53 0.0 0.0 0.00 0.20 0.15 99
20260506113026 53 0.0 0.0 0.00 0.20 0.15 99
20260506112025 53 0.0 0.0 0.00 0.20 0.15 99
20260506111025 53 0.0 0.0 0.00 0.20 0.15 99
20260506110026 53 0.0 0.0 0.00 0.20 0.15 99
20260506105025 53 0.0 0.0 0.00 0.20 0.15 99
20260506104026 53 0.0 0.0 0.00 0.20 0.15 99
20260506103025 53 0.0 0.0 0.00 0.20 0.15 99
20260506102025 53 0.0 0.0 0.00 0.20 0.15 99
20260506101045 53 0.0 0.0 0.00 0.20 0.15 99
20260506100046 53 0.0 0.0 0.00 0.20 0.15 98
20260506095026 53 0.0 0.0 0.00 0.20 0.15 98
20260506094045 53 0.0 0.0 0.00 0.20 0.15 98
20260506093026 53 0.0 0.0 0.00 0.20 0.15 99
20260506092025 53 0.0 0.0 0.00 0.20 0.15 99
20260506091025 53 0.0 0.0 0.00 0.20 0.15 99
20260506090046 53 0.0 0.0 0.00 0.20 0.15 99
20260506085025 53 0.0 0.0 0.00 0.20 0.15 98
20260506084046 53 0.0 0.0 0.00 0.20 0.15 98
20260506083045 53 0.0 0.0 0.00 0.20 0.15 98
20260506082026 53 0.0 0.0 0.00 0.20 0.15 98
20260506081026 54 0.0 0.0 0.00 0.20 0.15 98
20260506073026 54 0.0 0.0 0.00 0.20 0.15 98
20260506072026 54 0.0 0.0 0.00 0.20 0.15 98
20260506071025 54 0.0 0.0 0.00 0.20 0.15 98
20260506062046 55 0.0 0.0 0.04 0.20 0.15 98
20260506061046 55 0.0 0.0 0.11 0.20 0.15 97
20260506051025 55 0.0 0.0 0.04 0.09 0.04 97
20260506045046 55 0.0 0.0 0.03 0.08 0.03 96
20260506044046 55 0.0 0.0 0.03 0.08 0.03 96
20260506043025 55 0.0 0.0 0.02 0.07 0.02 96
20260506042025 56 0.0 0.0 0.00 0.05 0.00 95
20260506041106 56 0.0 0.0 0.00 0.05 0.00 94
20260506040026 56 0.0 0.0 0.00 0.05 0.00 94
20260506035025 56 0.0 0.0 0.00 0.05 0.05 94
20260506034046 56 0.0 0.0 0.00 0.05 0.05 93
20260506033026 56 0.0 0.0 0.00 0.05 0.05 93
20260506032026 56 0.0 0.0 0.00 0.05 0.05 92
20260506031026 56 0.0 0.0 0.00 0.05 0.05 92
20260506030046 56 0.0 0.0 0.00 0.05 0.05 93
20260506025026 56 0.0 0.0 0.00 0.05 0.05 92
20260506024025 57 0.0 0.0 0.00 0.05 0.05 92
20260506023026 57 0.0 0.0 0.00 0.05 0.05 92
20260506022026 57 0.0 0.0 0.00 0.05 0.05 92
20260506021026 57 0.0 0.0 0.00 0.05 0.05 91
20260506020026 57 0.0 0.0 0.00 0.05 0.05 91
20260506015025 57 0.0 0.0 0.00 0.05 0.05 90
20260506014025 57 0.0 0.0 0.00 0.05 0.05 90
20260506013026 58 0.0 0.0 0.00 0.05 0.05 88
20260506012026 59 0.0 0.0 0.00 0.05 0.05 86
20260506011026 59 0.0 0.0 0.00 0.05 0.05 85
20260506010025 60 0.0 1.0 0.00 3.80 0.05 84
20260506005026 60 158 1.0 2.0 0.00 3.80 0.05 84
20260506004026 61 0.0 0.0 0.00 3.80 0.05 79
20260506003026 61 0.0 0.0 0.00 3.80 0.05 82
20260506002123 62 158 1.0 2.0 0.00 3.80 0.05 82
20260506001025 63 0.0 0.0 0.00 3.80 0.05 77
20260506000026 63 0.0 0.0 0.00 3.80 0.05 78
20260505235026 64 0.0 0.0 0.00 3.80 0.05 72
20260505234026 64 158 0.0 2.0 0.00 3.80 0.05 71
20260505233044 65 158 2.0 4.0 0.00 3.80 0.05 67
20260505232026 66 0.0 1.0 0.00 3.80 0.05 61
20260505231045 66 158 1.0 2.0 0.00 3.80 0.05 61
20260505230025 0 158 0.0 2.0 0.00 3.80 0.05
20260505225507 66 213 3.0 6.0 0.00 3.80 0.05 60
20260505224046 0 270 2.0 3.0 0.00 3.80 0.05
20260505223122 66 274 3.0 5.0 0.00 3.80 0.05 63
20260505222025 66 135 2.0 4.0 0.00 3.80 0.05 63
20260505221045 66 189 2.0 4.0 0.00 3.80 0.05 66
20260505220026 66 165 3.0 5.0 0.00 3.80 0.05 65
20260505215025 65 158 3.0 5.0 0.01 3.80 0.05 72
20260505214121 65 158 1.0 3.0 0.01 3.80 0.05 82
20260505213025 66 158 0.0 2.0 0.01 3.80 0.05 77
20260505212025 66 158 1.0 3.0 0.01 3.80 0.05 79